Cloud_Cover
0 0 0 0 0 0 0 0 0 0 0 0 0 0 0 0 0 0 0 0 0 0 0 0 0 0 0 2 0 0 5 0 0 3 5 5 1 10 5 72 84 56 70 10
0 0 0 0 0 0 0 0 0 0 0 0 0 0 0 0 0 0 0 0 0 0 0 0 0 0 0 0 0 5 4 22 28 0 0 5 2 5 7 83 68 6 5 2
0 0 0 0 0 0 0 0 0 0 0 0 0 0 0 0 2 4 8 5 0 2 0 0 0 0 0 0 1 1 5 1 1 6 2 2 2 1 4 2 4 4 0 0
0 0 0 0 0 0 0 0 0 0 0 0 0 0 0 4 8 30 100 66 3 0 0 0 0 0 0 0 3 5 5 5 5 5 3 5 5 5 5 4 5 5 5 5
0 0 0 0 0 0 0 0 0 0 0 0 0 0 0 43 94 97 11 5 4 1 0 0 5 4 0 0 0 5 5 5 5 5 55 5 5 0 5 12 10 5 28 16
0 0 0 0 0 0 0 0 0 0 0 0 0 0 0 0 0 1 5 100 20 5 2 1 1 5 5 0 0 0 3 5 6 5 6 5 5 3 5 4 8 5 18 5
0 0 0 0 0 0 0 0 0 0 0 0 1 0 5 0 1 2 5 52 45 0 0 0 0 4 0 0 1 82 99 100 100 100 100 100 85 56 65 92 67 54 7 42
50 4 0 0 0 0 0 0 0 0 0 0 0 0 3 0 91 7 6 90 84 13 0 0 0 0 0 2 100 100 100 100 100 100 100 100 100 100 100 100 86 98 93 62
36 18 52 5 5 3 0 0 0 0 0 0 0 0 0 0 44 5 100 100 100 49 3 3 0 2 3 100 100 100 100 100 100 100 100 100 100 100 100 100 100 100 86 97
100 100 99 63 62 5 7 22 4 1 1 0 0 1 1 5 48 98 100 100 100 91 79 100 35 53 100 100 100 100 100 100 100 100 100 100 100 100 100 100 100 100 100 100
100 100 99 100 100 100 75 10 1 0 0 0 0 5 10 5 8 86 100 100 100 100 100 100 100 99 100 100 100 100 100 100 100 100 100 100 100 100 100 100 100 100 100 100
93 14 12 46 27 92 42 14 8 2 0 0 4 5 68 41 100 100 100 100 100 100 100 100 100 100 100 100 100 100 100 100 100 100 100 100 100 100 100 100 100 100 100 100
0 0 0 0 0 2 6 5 2 0 0 2 4 40 100 100 100 100 100 100 100 100 100 72 25 100 94 100 100 100 100 100 100 100 100 100 100 100 100 100 100 100 100 100
9 5 3 2 0 0 32 48 2 23 5 86 44 97 100 100 100 100 100 100 100 100 97 61 23 14 65 88 100 100 100 100 100 100 100 100 100 100 100 100 100 100 100 51
15 69 1 29 5 9 13 19 100 100 92 93 100 100 100 100 100 100 100 100 93 92 91 10 77 9 5 86 100 100 100 100 100 100 100 100 100 100 100 100 86 100 100 100
48 4 13 13 47 5 5 5 50 91 97 100 100 100 100 100 100 100 100 100 100 100 100 61 64 15 34 30 38 40 100 100 100 100 100 100 100 100 100 100 100 100 100 100
100 100 73 79 5 5 52 100 100 100 88 100 100 100 100 100 100 100 100 82 100 98 36 91 100 65 24 6 55 100 100 100 100 100 100 100 100 100 100 100 100 100 100 100
5 6 79 19 5 5 5 11 65 100 100 100 100 100 100 100 100 100 100 100 100 100 95 100 100 72 77 61 34 84 100 100 100 100 100 100 100 100 100 100 100 94 94 100
12 8 87 97 82 38 5 7 5 94 56 48 86 100 100 100 100 100 100 100 99 71 85 100 88 28 100 98 100 100 100 100 100 100 100 100 100 100 100 100 100 100 100 100
86 99 100 54 5 6 5 5 1 5 36 16 37 100 100 100 100 100 100 97 91 93 100 100 100 89 100 100 83 97 80 79 84 100 100 100 100 100 100 100 100 100 100 100
1 8 19 5 5 5 5 5 5 42 10 28 38 18 8 7 91 80 84 79 51 80 43 26 90 100 100 100 99 97 4 62 100 27 100 100 100 100 100 100 100 100 100 100
100 100 100 16 5 5 39 100 44 57 27 23 41 12 74 100 100 100 100 53 52 52 49 12 4 34 74 100 100 85 93 98 54 8 6 83 100 100 100 100 100 100 100 100
100 100 100 69 32 31 5 5 56 90 65 70 65 15 25 17 38 62 40 30 22 55 19 20 32 9 0 0 19 100 98 90 100 96 94 63 91 94 100 100 100 100 100 100
100 100 100 100 100 100 98 98 98 97 99 98 77 42 5 0 0 0 0 16 14 57 14 1 0 0 0 0 0 0 0 0 39 43 26 9 8 87 74 78 100 31 65 47
100 100 100 100 100 100 100 96 100 100 100 50 36 5 1 5 4 0 0 0 0 42 0 0 0 0 0 0 0 0 0 0 0 0 0 0 0 0 0 0 5 8 60 95
100 100 100 100 100 100 100 100 100 100 89 19 21 8 5 5 5 5 5 3 4 5 4 2 0 0 0 0 0 0 4 0 19 26 11 0 0 0 0 0 0 0 0 0
100 100 90 100 100 99 68 46 99 24 5 5 5 6 5 4 5 5 5 4 5 5 15 5 5 4 4 0 2 0 0 0 15 0 0 0 1 2 1 7 10 8 5 4